Location: Unspecified
(51.0000°N, 12.0000°E)
Time: 17:38:41
(UTC+02:00)

ISS - Pass Details

Date: 11 March 2018
Orbit: 403 x 408 km, 51.6° (Epoch: 24 June)

Event Time Altitude Azimuth Distance (km) Brightness Sun altitude
Exits shadow 04:48:00 51° 287° (WNW) 524 -3.7 -17.6°
Maximum altitude 04:48:43 77° 1° (N) 427 -3.8 -17.4°
Drops below altitude 10° 04:52:02 10° 88° (E) 1,479 0.2 -16.9°
Sets 04:54:07 0° 90° (E) 2,337 1.6 -16.6°
